History Data

Date (GMT-7:00) CPM ACPM uSv/h Latitude Longitude Altitude CO CO2 TVOC HCHO Air Pressure Temperature Humidity Type
2026-03-26 17:28:17 15 16.20 0.075000 41.649648 41.62752893 0 0 0 0 0 0 0 0 STD5.60
2026-03-26 17:23:15 19 15.80 0.095000 41.649648 41.62752893 0 0 0 0 0 0 0 0 STD5.60
2026-03-26 17:18:13 21 16.40 0.105000 41.649648 41.62752893 0 0 0 0 0 0 0 0 STD5.60
2026-03-26 17:13:11 13 16.20 0.065000 41.649648 41.62752893 0 0 0 0 0 0 0 0 STD5.60
2026-03-26 17:08:07 16 17.50 0.080000 41.649648 41.62752893 0 0 0 0 0 0 0 0 STD5.60
2026-03-26 17:03:06 18 17.20 0.090000 41.649648 41.62752893 0 0 0 0 0 0 0 0 STD5.60
2026-03-26 16:58:03 14 16.00 0.070000 41.649648 41.62752893 0 0 0 0 0 0 0 0 STD5.60
2026-03-26 16:53:01 14 18.70 0.070000 41.649648 41.62752893 0 0 0 0 0 0 0 0 STD5.60
2026-03-26 16:48:00 19 19.60 0.095000 41.649648 41.62752893 0 0 0 0 0 0 0 0 STD5.60
2026-03-26 16:42:57 21 18.40 0.105000 41.649648 41.62752893 0 0 0 0 0 0 0 0 STD5.60
2026-03-26 16:37:56 13 17.80 0.065000 41.649648 41.62752893 0 0 0 0 0 0 0 0 STD5.60
2026-03-26 16:32:54 13 18.40 0.065000 41.649648 41.62752893 0 0 0 0 0 0 0 0 STD5.60
2026-03-26 16:27:52 20 19.30 0.100000 41.649648 41.62752893 0 0 0 0 0 0 0 0 STD5.60
2026-03-26 16:22:50 16 18.00 0.080000 41.649648 41.62752893 0 0 0 0 0 0 0 0 STD5.60
2026-03-26 16:17:49 20 16.20 0.100000 41.649648 41.62752893 0 0 0 0 0 0 0 0 STD5.60
2026-03-26 16:12:46 13 17.70 0.065000 41.649648 41.62752893 0 0 0 0 0 0 0 0 STD5.60
2026-03-26 16:07:43 18 19.40 0.090000 41.649648 41.62752893 0 0 0 0 0 0 0 0 STD5.60
2026-03-26 16:02:41 15 20.10 0.075000 41.649648 41.62752893 0 0 0 0 0 0 0 0 STD5.60
2026-03-26 15:57:39 20 19.40 0.100000 41.649648 41.62752893 0 0 0 0 0 0 0 0 STD5.60
2026-03-26 15:52:37 23 17.90 0.115000 41.649648 41.62752893 0 0 0 0 0 0 0 0 STD5.60
2026-03-26 15:47:36 25 17.50 0.125000 41.649648 41.62752893 0 0 0 0 0 0 0 0 STD5.60
2026-03-26 15:42:33 9 14.90 0.045000 41.649648 41.62752893 0 0 0 0 0 0 0 0 STD5.60
2026-03-26 15:37:32 13 18.60 0.065000 41.649648 41.62752893 0 0 0 0 0 0 0 0 STD5.60
2026-03-26 15:32:29 21 21.40 0.105000 41.649648 41.62752893 0 0 0 0 0 0 0 0 STD5.60
2026-03-26 15:27:28 19 18.20 0.095000 41.649648 41.62752893 0 0 0 0 0 0 0 0 STD5.60
2026-03-26 15:22:25 14 16.50 0.070000 41.649648 41.62752893 0 0 0 0 0 0 0 0 STD5.60
2026-03-26 15:17:24 11 16.50 0.055000 41.649648 41.62752893 0 0 0 0 0 0 0 0 STD5.60
2026-03-26 15:12:21 17 17.00 0.085000 41.649648 41.62752893 0 0 0 0 0 0 0 0 STD5.60
2026-03-26 15:07:16 19 18.00 0.095000 41.649648 41.62752893 0 0 0 0 0 0 0 0 STD5.60
2026-03-26 15:02:15 15 18.20 0.075000 41.649648 41.62752893 0 0 0 0 0 0 0 0 STD5.60
2026-03-26 14:57:14 17 17.80 0.085000 41.649648 41.62752893 0 0 0 0 0 0 0 0 STD5.60
2026-03-26 14:52:11 19 19.20 0.095000 41.649648 41.62752893 0 0 0 0 0 0 0 0 STD5.60
2026-03-26 14:47:09 15 18.80 0.075000 41.649648 41.62752893 0 0 0 0 0 0 0 0 STD5.60
2026-03-26 14:42:07 18 17.50 0.090000 41.649648 41.62752893 0 0 0 0 0 0 0 0 STD5.60
2026-03-26 14:37:05 15 17.20 0.075000 41.649648 41.62752893 0 0 0 0 0 0 0 0 STD5.60
2026-03-26 14:32:04 19 17.50 0.095000 41.649648 41.62752893 0 0 0 0 0 0 0 0 STD5.60
2026-03-26 14:27:05 15 19.20 0.075000 41.649648 41.62752893 0 0 0 0 0 0 0 0 STD5.60
2026-03-26 14:22:00 21 19.60 0.105000 41.649648 41.62752893 0 0 0 0 0 0 0 0 STD5.60
2026-03-26 14:16:58 20 18.00 0.100000 41.649648 41.62752893 0 0 0 0 0 0 0 0 STD5.60
2026-03-26 14:11:56 18 18.00 0.090000 41.649648 41.62752893 0 0 0 0 0 0 0 0 STD5.60
2026-03-26 14:06:52 11 16.90 0.055000 41.649648 41.62752893 0 0 0 0 0 0 0 0 STD5.60
2026-03-26 14:01:49 22 17.50 0.110000 41.649648 41.62752893 0 0 0 0 0 0 0 0 STD5.60
2026-03-26 13:56:48 16 16.90 0.080000 41.649648 41.62752893 0 0 0 0 0 0 0 0 STD5.60
2026-03-26 13:51:45 14 16.80 0.070000 41.649648 41.62752893 0 0 0 0 0 0 0 0 STD5.60
2026-03-26 13:46:44 18 18.90 0.090000 41.649648 41.62752893 0 0 0 0 0 0 0 0 STD5.60
2026-03-26 13:41:41 20 19.70 0.100000 41.649648 41.62752893 0 0 0 0 0 0 0 0 STD5.60
2026-03-26 13:36:39 17 19.80 0.085000 41.649648 41.62752893 0 0 0 0 0 0 0 0 STD5.60
2026-03-26 13:31:38 12 17.40 0.060000 41.649648 41.62752893 0 0 0 0 0 0 0 0 STD5.60
2026-03-26 13:26:39 11 18.70 0.055000 41.649648 41.62752893 0 0 0 0 0 0 0 0 STD5.60
2026-03-26 13:21:34 20 19.80 0.100000 41.649648 41.62752893 0 0 0 0 0 0 0 0 STD5.60
2026-03-26 13:16:33 20 17.60 0.100000 41.649648 41.62752893 0 0 0 0 0 0 0 0 STD5.60
2026-03-26 13:11:30 21 14.70 0.105000 41.649648 41.62752893 0 0 0 0 0 0 0 0 STD5.60
2026-03-26 13:06:26 12 15.60 0.060000 41.649648 41.62752893 0 0 0 0 0 0 0 0 STD5.60
2026-03-26 13:01:24 16 18.70 0.080000 41.649648 41.62752893 0 0 0 0 0 0 0 0 STD5.60
2026-03-26 12:56:21 12 19.10 0.060000 41.649648 41.62752893 0 0 0 0 0 0 0 0 STD5.60
2026-03-26 12:51:19 21 16.40 0.105000 41.649648 41.62752893 0 0 0 0 0 0 0 0 STD5.60
2026-03-26 12:46:17 14 16.70 0.070000 41.649648 41.62752893 0 0 0 0 0 0 0 0 STD5.60
2026-03-26 12:41:17 18 18.60 0.090000 41.649648 41.62752893 0 0 0 0 0 0 0 0 STD5.60
2026-03-26 12:36:13 25 16.10 0.125000 41.649648 41.62752893 0 0 0 0 0 0 0 0 STD5.60
2026-03-26 12:31:11 16 16.80 0.080000 41.649648 41.62752893 0 0 0 0 0 0 0 0 STD5.60
2026-03-26 12:26:11 16 18.90 0.080000 41.649648 41.62752893 0 0 0 0 0 0 0 0 STD5.60
2026-03-26 12:21:10 22 19.20 0.110000 41.649648 41.62752893 0 0 0 0 0 0 0 0 STD5.60
2026-03-26 12:16:06 18 18.10 0.090000 41.649648 41.62752893 0 0 0 0 0 0 0 0 STD5.60
2026-03-26 12:11:04 15 17.10 0.075000 41.649648 41.62752893 0 0 0 0 0 0 0 0 STD5.60
2026-03-26 12:05:59 23 17.80 0.115000 41.649648 41.62752893 0 0 0 0 0 0 0 0 STD5.60
2026-03-26 12:00:59 21 18.30 0.105000 41.649648 41.62752893 0 0 0 0 0 0 0 0 STD5.60
2026-03-26 11:55:55 14 17.80 0.070000 41.649648 41.62752893 0 0 0 0 0 0 0 0 STD5.60
2026-03-26 11:50:53 14 17.10 0.070000 41.649648 41.62752893 0 0 0 0 0 0 0 0 STD5.60
2026-03-26 11:45:52 22 17.30 0.110000 41.649648 41.62752893 0 0 0 0 0 0 0 0 STD5.60
2026-03-26 11:40:49 14 16.50 0.070000 41.649648 41.62752893 0 0 0 0 0 0 0 0 STD5.60
2026-03-26 11:35:47 13 18.10 0.065000 41.649648 41.62752893 0 0 0 0 0 0 0 0 STD5.60
2026-03-26 11:30:45 22 17.70 0.110000 41.649648 41.62752893 0 0 0 0 0 0 0 0 STD5.60
2026-03-26 11:25:43 20 16.70 0.100000 41.649648 41.62752893 0 0 0 0 0 0 0 0 STD5.60
2026-03-26 11:20:41 20 18.40 0.100000 41.649648 41.62752893 0 0 0 0 0 0 0 0 STD5.60
2026-03-26 11:15:43 16 16.90 0.080000 41.649648 41.62752893 0 0 0 0 0 0 0 0 STD5.60
2026-03-26 11:10:37 14 16.60 0.070000 41.649648 41.62752893 0 0 0 0 0 0 0 0 STD5.60
2026-03-26 11:05:34 18 18.10 0.090000 41.649648 41.62752893 0 0 0 0 0 0 0 0 STD5.60
2026-03-26 11:00:32 15 17.10 0.075000 41.649648 41.62752893 0 0 0 0 0 0 0 0 STD5.60
2026-03-26 10:55:30 12 16.90 0.060000 41.649648 41.62752893 0 0 0 0 0 0 0 0 STD5.60
2026-03-26 10:50:28 16 17.50 0.080000 41.649648 41.62752893 0 0 0 0 0 0 0 0 STD5.60
2026-03-26 10:45:27 26 17.30 0.130000 41.649648 41.62752893 0 0 0 0 0 0 0 0 STD5.60
2026-03-26 10:40:24 13 17.20 0.065000 41.649648 41.62752893 0 0 0 0 0 0 0 0 STD5.60
2026-03-26 10:35:22 13 16.80 0.065000 41.649648 41.62752893 0 0 0 0 0 0 0 0 STD5.60
2026-03-26 10:30:20 15 17.50 0.075000 41.649648 41.62752893 0 0 0 0 0 0 0 0 STD5.60
2026-03-26 10:25:18 22 18.10 0.110000 41.649648 41.62752893 0 0 0 0 0 0 0 0 STD5.60
2026-03-26 10:20:18 16 18.00 0.080000 41.649648 41.62752893 0 0 0 0 0 0 0 0 STD5.60
2026-03-26 10:15:15 14 13.20 0.070000 41.649648 41.62752893 0 0 0 0 0 0 0 0 STD5.60
2026-03-26 10:10:13 10 3.90 0.050000 41.649648 41.62752893 0 0 0 0 0 0 0 0 STD5.60
2026-03-26 10:05:09 20 17.20 0.100000 41.649648 41.62752893 0 0 0 0 0 0 0 0 STD5.60
2026-03-26 10:00:10 16 17.70 0.080000 41.649648 41.62752893 0 0 0 0 0 0 0 0 STD5.60
2026-03-26 09:55:05 22 18.20 0.110000 41.649648 41.62752893 0 0 0 0 0 0 0 0 STD5.60
2026-03-26 09:50:05 18 18.10 0.090000 41.649648 41.62752893 0 0 0 0 0 0 0 0 STD5.60
2026-03-26 09:45:01 16 17.90 0.080000 41.649648 41.62752893 0 0 0 0 0 0 0 0 STD5.60
2026-03-26 09:39:59 15 18.50 0.075000 41.649648 41.62752893 0 0 0 0 0 0 0 0 STD5.60
2026-03-26 09:34:56 18 19.80 0.090000 41.649648 41.62752893 0 0 0 0 0 0 0 0 STD5.60
2026-03-26 09:29:53 20 19.70 0.100000 41.649648 41.62752893 0 0 0 0 0 0 0 0 STD5.60
2026-03-26 09:24:52 20 21.00 0.100000 41.649648 41.62752893 0 0 0 0 0 0 0 0 STD5.60
2026-03-26 09:19:50 29 19.60 0.145000 41.649648 41.62752893 0 0 0 0 0 0 0 0 STD5.60
2026-03-26 09:14:48 21 17.30 0.105000 41.649648 41.62752893 0 0 0 0 0 0 0 0 STD5.60
2026-03-26 09:09:46 18 16.70 0.090000 41.649648 41.62752893 0 0 0 0 0 0 0 0 STD5.60
2026-03-26 09:04:39 17 16.20 0.085000 41.649648 41.62752893 0 0 0 0 0 0 0 0 STD5.60
2026-03-26 08:59:37 18 18.90 0.090000 41.649648 41.62752893 0 0 0 0 0 0 0 0 STD5.60
2026-03-26 08:54:35 20 21.50 0.100000 41.649648 41.62752893 0 0 0 0 0 0 0 0 STD5.60
2026-03-26 08:49:34 24 18.80 0.120000 41.649648 41.62752893 0 0 0 0 0 0 0 0 STD5.60
2026-03-26 08:44:32 19 15.90 0.095000 41.649648 41.62752893 0 0 0 0 0 0 0 0 STD5.60
2026-03-26 08:39:30 15 17.10 0.075000 41.649648 41.62752893 0 0 0 0 0 0 0 0 STD5.60
2026-03-26 08:34:28 16 17.90 0.080000 41.649648 41.62752893 0 0 0 0 0 0 0 0 STD5.60
2026-03-26 08:29:29 15 18.50 0.075000 41.649648 41.62752893 0 0 0 0 0 0 0 0 STD5.60
2026-03-26 08:24:24 15 17.60 0.075000 41.649648 41.62752893 0 0 0 0 0 0 0 0 STD5.60
2026-03-26 08:19:22 16 17.60 0.080000 41.649648 41.62752893 0 0 0 0 0 0 0 0 STD5.60
2026-03-26 08:14:20 20 18.50 0.100000 41.649648 41.62752893 0 0 0 0 0 0 0 0 STD5.60
2026-03-26 08:09:19 20 18.70 0.100000 41.649648 41.62752893 0 0 0 0 0 0 0 0 STD5.60
2026-03-26 08:04:15 18 16.40 0.090000 41.649648 41.62752893 0 0 0 0 0 0 0 0 STD5.60
2026-03-26 07:59:13 15 14.40 0.075000 41.649648 41.62752893 0 0 0 0 0 0 0 0 STD5.60
2026-03-26 07:54:11 11 16.30 0.055000 41.649648 41.62752893 0 0 0 0 0 0 0 0 STD5.60
2026-03-26 07:49:09 21 18.30 0.105000 41.649648 41.62752893 0 0 0 0 0 0 0 0 STD5.60
2026-03-26 07:44:08 26 18.80 0.130000 41.649648 41.62752893 0 0 0 0 0 0 0 0 STD5.60
2026-03-26 07:39:05 16 18.20 0.080000 41.649648 41.62752893 0 0 0 0 0 0 0 0 STD5.60
2026-03-26 07:34:03 27 18.20 0.135000 41.649648 41.62752893 0 0 0 0 0 0 0 0 STD5.60
2026-03-26 07:29:02 25 17.00 0.125000 41.649648 41.62752893 0 0 0 0 0 0 0 0 STD5.60
2026-03-26 07:23:59 18 16.50 0.090000 41.649648 41.62752893 0 0 0 0 0 0 0 0 STD5.60
2026-03-26 07:18:57 19 17.00 0.095000 41.649648 41.62752893 0 0 0 0 0 0 0 0 STD5.60
2026-03-26 07:13:56 21 17.40 0.105000 41.649648 41.62752893 0 0 0 0 0 0 0 0 STD5.60
2026-03-26 07:08:54 14 17.90 0.070000 41.649648 41.62752893 0 0 0 0 0 0 0 0 STD5.60
2026-03-26 07:03:50 10 18.60 0.050000 41.649648 41.62752893 0 0 0 0 0 0 0 0 STD5.60
2026-03-26 06:58:48 18 18.20 0.090000 41.649648 41.62752893 0 0 0 0 0 0 0 0 STD5.60
2026-03-26 06:53:46 14 17.60 0.070000 41.649648 41.62752893 0 0 0 0 0 0 0 0 STD5.60
2026-03-26 06:48:45 21 18.90 0.105000 41.649648 41.62752893 0 0 0 0 0 0 0 0 STD5.60
2026-03-26 06:43:43 17 18.00 0.085000 41.649648 41.62752893 0 0 0 0 0 0 0 0 STD5.60
2026-03-26 06:38:41 15 16.10 0.075000 41.649648 41.62752893 0 0 0 0 0 0 0 0 STD5.60
2026-03-26 06:33:39 16 17.00 0.080000 41.649648 41.62752893 0 0 0 0 0 0 0 0 STD5.60
2026-03-26 06:28:37 27 17.50 0.135000 41.649648 41.62752893 0 0 0 0 0 0 0 0 STD5.60
2026-03-26 06:23:35 13 15.20 0.065000 41.649648 41.62752893 0 0 0 0 0 0 0 0 STD5.60
2026-03-26 06:18:33 12 15.30 0.060000 41.649648 41.62752893 0 0 0 0 0 0 0 0 STD5.60
2026-03-26 06:13:32 16 18.10 0.080000 41.649648 41.62752893 0 0 0 0 0 0 0 0 STD5.60
2026-03-26 06:08:29 18 17.50 0.090000 41.649648 41.62752893 0 0 0 0 0 0 0 0 STD5.60
2026-03-26 06:03:26 18 16.00 0.090000 41.649648 41.62752893 0 0 0 0 0 0 0 0 STD5.60
2026-03-26 05:58:24 18 17.10 0.090000 41.649648 41.62752893 0 0 0 0 0 0 0 0 STD5.60
2026-03-26 05:53:22 11 19.60 0.055000 41.649648 41.62752893 0 0 0 0 0 0 0 0 STD5.60
2026-03-26 05:48:20 19 17.40 0.095000 41.649648 41.62752893 0 0 0 0 0 0 0 0 STD5.60
2026-03-26 05:43:18 11 17.00 0.055000 41.649648 41.62752893 0 0 0 0 0 0 0 0 STD5.60
2026-03-26 05:38:16 19 19.10 0.095000 41.649648 41.62752893 0 0 0 0 0 0 0 0 STD5.60
2026-03-26 05:33:14 14 15.60 0.070000 41.649648 41.62752893 0 0 0 0 0 0 0 0 STD5.60
2026-03-26 05:28:12 11 16.60 0.055000 41.649648 41.62752893 0 0 0 0 0 0 0 0 STD5.60
2026-03-26 05:23:10 20 18.50 0.100000 41.649648 41.62752893 0 0 0 0 0 0 0 0 STD5.60
2026-03-26 05:18:09 16 18.50 0.080000 41.649648 41.62752893 0 0 0 0 0 0 0 0 STD5.60
2026-03-26 05:13:07 23 16.90 0.115000 41.649648 41.62752893 0 0 0 0 0 0 0 0 STD5.60
2026-03-26 05:08:05 13 16.10 0.065000 41.649648 41.62752893 0 0 0 0 0 0 0 0 STD5.60
2026-03-26 05:03:00 17 18.20 0.085000 41.649648 41.62752893 0 0 0 0 0 0 0 0 STD5.60
2026-03-26 04:57:59 17 18.00 0.085000 41.649648 41.62752893 0 0 0 0 0 0 0 0 STD5.60
2026-03-26 04:52:57 15 18.00 0.075000 41.649648 41.62752893 0 0 0 0 0 0 0 0 STD5.60
2026-03-26 04:47:54 20 18.70 0.100000 41.649648 41.62752893 0 0 0 0 0 0 0 0 STD5.60
2026-03-26 04:42:53 25 17.70 0.125000 41.649648 41.62752893 0 0 0 0 0 0 0 0 STD5.60
2026-03-26 04:37:51 18 15.90 0.090000 41.649648 41.62752893 0 0 0 0 0 0 0 0 STD5.60
2026-03-26 04:32:49 15 17.90 0.075000 41.649648 41.62752893 0 0 0 0 0 0 0 0 STD5.60
2026-03-26 04:27:47 18 19.30 0.090000 41.649648 41.62752893 0 0 0 0 0 0 0 0 STD5.60
2026-03-26 04:22:45 24 19.10 0.120000 41.649648 41.62752893 0 0 0 0 0 0 0 0 STD5.60
2026-03-26 04:17:43 14 18.10 0.070000 41.649648 41.62752893 0 0 0 0 0 0 0 0 STD5.60
2026-03-26 04:12:41 19 18.60 0.095000 41.649648 41.62752893 0 0 0 0 0 0 0 0 STD5.60
2026-03-26 04:07:39 16 18.70 0.080000 41.649648 41.62752893 0 0 0 0 0 0 0 0 STD5.60
2026-03-26 04:02:34 17 18.10 0.085000 41.649648 41.62752893 0 0 0 0 0 0 0 0 STD5.60
2026-03-26 03:57:32 17 16.40 0.085000 41.649648 41.62752893 0 0 0 0 0 0 0 0 STD5.60
2026-03-26 03:52:30 13 15.60 0.065000 41.649648 41.62752893 0 0 0 0 0 0 0 0 STD5.60
2026-03-26 03:47:28 18 17.20 0.090000 41.649648 41.62752893 0 0 0 0 0 0 0 0 STD5.60
2026-03-26 03:42:26 16 16.00 0.080000 41.649648 41.62752893 0 0 0 0 0 0 0 0 STD5.60
2026-03-26 03:37:24 15 18.30 0.075000 41.649648 41.62752893 0 0 0 0 0 0 0 0 STD5.60
2026-03-26 03:32:23 16 18.80 0.080000 41.649648 41.62752893 0 0 0 0 0 0 0 0 STD5.60
2026-03-26 03:27:21 16 17.30 0.080000 41.649648 41.62752893 0 0 0 0 0 0 0 0 STD5.60
2026-03-26 03:22:19 25 19.60 0.125000 41.649648 41.62752893 0 0 0 0 0 0 0 0 STD5.60
2026-03-26 03:17:17 19 20.30 0.095000 41.649648 41.62752893 0 0 0 0 0 0 0 0 STD5.60
2026-03-26 03:12:15 22 17.00 0.110000 41.649648 41.62752893 0 0 0 0 0 0 0 0 STD5.60
2026-03-26 03:07:13 12 16.00 0.060000 41.649648 41.62752893 0 0 0 0 0 0 0 0 STD5.60
2026-03-26 03:02:08 15 18.10 0.075000 41.649648 41.62752893 0 0 0 0 0 0 0 0 STD5.60
2026-03-26 02:57:06 18 18.00 0.090000 41.649648 41.62752893 0 0 0 0 0 0 0 0 STD5.60
2026-03-26 02:52:05 22 18.90 0.110000 41.649648 41.62752893 0 0 0 0 0 0 0 0 STD5.60
2026-03-26 02:47:04 21 20.20 0.105000 41.649648 41.62752893 0 0 0 0 0 0 0 0 STD5.60
2026-03-26 02:42:01 16 19.00 0.080000 41.649648 41.62752893 0 0 0 0 0 0 0 0 STD5.60
2026-03-26 02:36:59 14 19.40 0.070000 41.649648 41.62752893 0 0 0 0 0 0 0 0 STD5.60
2026-03-26 02:31:57 28 20.10 0.140000 41.649648 41.62752893 0 0 0 0 0 0 0 0 STD5.60
2026-03-26 02:26:55 19 19.50 0.095000 41.649648 41.62752893 0 0 0 0 0 0 0 0 STD5.60
2026-03-26 02:21:53 19 18.50 0.095000 41.649648 41.62752893 0 0 0 0 0 0 0 0 STD5.60
2026-03-26 02:16:51 17 17.40 0.085000 41.649648 41.62752893 0 0 0 0 0 0 0 0 STD5.60
2026-03-26 02:11:49 19 15.80 0.095000 41.649648 41.62752893 0 0 0 0 0 0 0 0 STD5.60
2026-03-26 02:06:47 18 16.80 0.090000 41.649648 41.62752893 0 0 0 0 0 0 0 0 STD5.60
2026-03-26 02:01:44 15 18.30 0.075000 41.649648 41.62752893 0 0 0 0 0 0 0 0 STD5.60
2026-03-26 01:56:42 21 17.70 0.105000 41.649648 41.62752893 0 0 0 0 0 0 0 0 STD5.60
2026-03-26 01:51:40 21 16.50 0.105000 41.649648 41.62752893 0 0 0 0 0 0 0 0 STD5.60
2026-03-26 01:46:38 12 15.90 0.060000 41.649648 41.62752893 0 0 0 0 0 0 0 0 STD5.60
2026-03-26 01:41:36 21 17.70 0.105000 41.649648 41.62752893 0 0 0 0 0 0 0 0 STD5.60
2026-03-26 01:36:34 17 17.30 0.085000 41.649648 41.62752893 0 0 0 0 0 0 0 0 STD5.60
2026-03-26 01:31:32 17 17.20 0.085000 41.649648 41.62752893 0 0 0 0 0 0 0 0 STD5.60
2026-03-26 01:26:31 21 17.50 0.105000 41.649648 41.62752893 0 0 0 0 0 0 0 0 STD5.60
2026-03-26 01:21:28 19 16.70 0.095000 41.649648 41.62752893 0 0 0 0 0 0 0 0 STD5.60
2026-03-26 01:16:27 16 16.80 0.080000 41.649648 41.62752893 0 0 0 0 0 0 0 0 STD5.60
2026-03-26 01:11:25 12 16.90 0.060000 41.649648 41.62752893 0 0 0 0 0 0 0 0 STD5.60
2026-03-26 01:06:23 20 16.80 0.100000 41.649648 41.62752893 0 0 0 0 0 0 0 0 STD5.60
2026-03-26 01:01:19 14 18.50 0.070000 41.649648 41.62752893 0 0 0 0 0 0 0 0 STD5.60
2026-03-26 00:56:17 20 20.10 0.100000 41.649648 41.62752893 0 0 0 0 0 0 0 0 STD5.60
2026-03-26 00:51:15 26 19.90 0.130000 41.649648 41.62752893 0 0 0 0 0 0 0 0 STD5.60
2026-03-26 00:46:13 20 19.20 0.100000 41.649648 41.62752893 0 0 0 0 0 0 0 0 STD5.60
2026-03-26 00:41:11 19 18.00 0.095000 41.649648 41.62752893 0 0 0 0 0 0 0 0 STD5.60
2026-03-26 00:36:09 14 18.70 0.070000 41.649648 41.62752893 0 0 0 0 0 0 0 0 STD5.60
2026-03-26 00:31:07 20 18.40 0.100000 41.649648 41.62752893 0 0 0 0 0 0 0 0 STD5.60
2026-03-26 00:26:10 23 16.80 0.115000 41.649648 41.62752893 0 0 0 0 0 0 0 0 STD5.60
2026-03-26 00:21:04 13 16.90 0.065000 41.649648 41.62752893 0 0 0 0 0 0 0 0 STD5.60
2026-03-26 00:16:02 18 18.10 0.090000 41.649648 41.62752893 0 0 0 0 0 0 0 0 STD5.60
2026-03-26 00:11:00 22 19.20 0.110000 41.649648 41.62752893 0 0 0 0 0 0 0 0 STD5.60
2026-03-26 00:05:58 13 17.20 0.065000 41.649648 41.62752893 0 0 0 0 0 0 0 0 STD5.60
2026-03-26 00:00:54 16 16.60 0.080000 41.649648 41.62752893 0 0 0 0 0 0 0 0 STD5.60
2026-03-25 23:55:52 21 16.70 0.105000 41.649648 41.62752893 0 0 0 0 0 0 0 0 STD5.60
2026-03-25 23:50:51 14 17.20 0.070000 41.649648 41.62752893 0 0 0 0 0 0 0 0 STD5.60
2026-03-25 23:45:49 12 18.50 0.060000 41.649648 41.62752893 0 0 0 0 0 0 0 0 STD5.60
2026-03-25 23:40:47 23 18.60 0.115000 41.649648 41.62752893 0 0 0 0 0 0 0 0 STD5.60
2026-03-25 23:35:45 17 18.00 0.085000 41.649648 41.62752893 0 0 0 0 0 0 0 0 STD5.60
2026-03-25 23:30:43 20 18.70 0.100000 41.649648 41.62752893 0 0 0 0 0 0 0 0 STD5.60
2026-03-25 23:25:41 20 19.60 0.100000 41.649648 41.62752893 0 0 0 0 0 0 0 0 STD5.60
2026-03-25 23:20:39 9 17.20 0.045000 41.649648 41.62752893 0 0 0 0 0 0 0 0 STD5.60
2026-03-25 23:15:38 10 17.70 0.050000 41.649648 41.62752893 0 0 0 0 0 0 0 0 STD5.60
2026-03-25 23:10:35 22 19.00 0.110000 41.649648 41.62752893 0 0 0 0 0 0 0 0 STD5.60
2026-03-25 23:05:33 21 18.70 0.105000 41.649648 41.62752893 0 0 0 0 0 0 0 0 STD5.60
2026-03-25 23:00:30 20 17.50 0.100000 41.649648 41.62752893 0 0 0 0 0 0 0 0 STD5.60
2026-03-25 22:55:28 16 17.30 0.080000 41.649648 41.62752893 0 0 0 0 0 0 0 0 STD5.60
2026-03-25 22:50:25 23 17.60 0.115000 41.649648 41.62752893 0 0 0 0 0 0 0 0 STD5.60
2026-03-25 22:45:24 15 16.10 0.075000 41.649648 41.62752893 0 0 0 0 0 0 0 0 STD5.60
2026-03-25 22:40:22 19 16.50 0.095000 41.649648 41.62752893 0 0 0 0 0 0 0 0 STD5.60
2026-03-25 22:35:19 14 16.00 0.070000 41.649648 41.62752893 0 0 0 0 0 0 0 0 STD5.60
2026-03-25 22:30:18 5 16.70 0.025000 41.649648 41.62752893 0 0 0 0 0 0 0 0 STD5.60
2026-03-25 22:25:16 16 16.90 0.080000 41.649648 41.62752893 0 0 0 0 0 0 0 0 STD5.60
2026-03-25 22:20:14 18 18.10 0.090000 41.649648 41.62752893 0 0 0 0 0 0 0 0 STD5.60
2026-03-25 22:15:12 17 18.70 0.085000 41.649648 41.62752893 0 0 0 0 0 0 0 0 STD5.60
2026-03-25 22:10:10 16 16.00 0.080000 41.649648 41.62752893 0 0 0 0 0 0 0 0 STD5.60
2026-03-25 22:05:08 11 15.60 0.055000 41.649648 41.62752893 0 0 0 0 0 0 0 0 STD5.60
2026-03-25 22:00:09 13 17.30 0.065000 41.649648 41.62752893 0 0 0 0 0 0 0 0 STD5.60
2026-03-25 21:55:03 16 17.80 0.080000 41.649648 41.62752893 0 0 0 0 0 0 0 0 STD5.60
2026-03-25 21:50:00 16 16.00 0.080000 41.649648 41.62752893 0 0 0 0 0 0 0 0 STD5.60
2026-03-25 21:44:58 19 16.00 0.095000 41.649648 41.62752893 0 0 0 0 0 0 0 0 STD5.60
2026-03-25 21:39:56 18 16.00 0.090000 41.649648 41.62752893 0 0 0 0 0 0 0 0 STD5.60
2026-03-25 21:34:54 16 15.10 0.080000 41.649648 41.62752893 0 0 0 0 0 0 0 0 STD5.60
2026-03-25 21:29:52 10 16.30 0.050000 41.649648 41.62752893 0 0 0 0 0 0 0 0 STD5.60
2026-03-25 21:24:51 15 17.60 0.075000 41.649648 41.62752893 0 0 0 0 0 0 0 0 STD5.60
2026-03-25 21:19:49 20 17.30 0.100000 41.649648 41.62752893 0 0 0 0 0 0 0 0 STD5.60
2026-03-25 21:14:47 20 17.30 0.100000 41.649648 41.62752893 0 0 0 0 0 0 0 0 STD5.60
2026-03-25 21:09:45 16 18.00 0.080000 41.649648 41.62752893 0 0 0 0 0 0 0 0 STD5.60
2026-03-25 21:04:43 19 19.20 0.095000 41.649648 41.62752893 0 0 0 0 0 0 0 0 STD5.60
2026-03-25 20:59:39 18 19.80 0.090000 41.649648 41.62752893 0 0 0 0 0 0 0 0 STD5.60
2026-03-25 20:54:37 21 20.20 0.105000 41.649648 41.62752893 0 0 0 0 0 0 0 0 STD5.60
2026-03-25 20:49:36 22 20.20 0.110000 41.649648 41.62752893 0 0 0 0 0 0 0 0 STD5.60
2026-03-25 20:44:34 19 18.30 0.095000 41.649648 41.62752893 0 0 0 0 0 0 0 0 STD5.60
2026-03-25 20:39:32 21 18.50 0.105000 41.649648 41.62752893 0 0 0 0 0 0 0 0 STD5.60
2026-03-25 20:34:30 23 19.70 0.115000 41.649648 41.62752893 0 0 0 0 0 0 0 0 STD5.60
2026-03-25 20:29:28 11 18.00 0.055000 41.649648 41.62752893 0 0 0 0 0 0 0 0 STD5.60
2026-03-25 20:24:26 10 18.20 0.050000 41.649648 41.62752893 0 0 0 0 0 0 0 0 STD5.60
2026-03-25 20:19:24 17 17.40 0.085000 41.649648 41.62752893 0 0 0 0 0 0 0 0 STD5.60
2026-03-25 20:14:22 13 16.40 0.065000 41.649648 41.62752893 0 0 0 0 0 0 0 0 STD5.60
2026-03-25 20:09:20 20 17.90 0.100000 41.649648 41.62752893 0 0 0 0 0 0 0 0 STD5.60
2026-03-25 20:04:21 14 17.60 0.070000 41.649648 41.62752893 0 0 0 0 0 0 0 0 STD5.60
2026-03-25 19:59:15 19 17.90 0.095000 41.649648 41.62752893 0 0 0 0 0 0 0 0 STD5.60
2026-03-25 19:54:15 20 18.40 0.100000 41.649648 41.62752893 0 0 0 0 0 0 0 0 STD5.60
2026-03-25 19:49:10 14 18.30 0.070000 41.649648 41.62752893 0 0 0 0 0 0 0 0 STD5.60
2026-03-25 19:44:08 16 17.30 0.080000 41.649648 41.62752893 0 0 0 0 0 0 0 0 STD5.60
2026-03-25 19:39:06 9 17.50 0.045000 41.649648 41.62752893 0 0 0 0 0 0 0 0 STD5.60
2026-03-25 19:34:05 21 18.40 0.105000 41.649648 41.62752893 0 0 0 0 0 0 0 0 STD5.60
2026-03-25 19:29:02 19 18.30 0.095000 41.649648 41.62752893 0 0 0 0 0 0 0 0 STD5.60
2026-03-25 19:24:00 18 17.10 0.090000 41.649648 41.62752893 0 0 0 0 0 0 0 0 STD5.60
2026-03-25 19:18:58 11 19.50 0.055000 41.649648 41.62752893 0 0 0 0 0 0 0 0 STD5.60
2026-03-25 19:13:56 23 21.70 0.115000 41.649648 41.62752893 0 0 0 0 0 0 0 0 STD5.60
2026-03-25 19:08:55 22 19.60 0.110000 41.649648 41.62752893 0 0 0 0 0 0 0 0 STD5.60
2026-03-25 19:03:50 12 17.70 0.060000 41.649648 41.62752893 0 0 0 0 0 0 0 0 STD5.60
2026-03-25 18:58:47 15 17.40 0.075000 41.649648 41.62752893 0 0 0 0 0 0 0 0 STD5.60
2026-03-25 18:53:46 21 17.90 0.105000 41.649648 41.62752893 0 0 0 0 0 0 0 0 STD5.60
2026-03-25 18:48:43 17 19.10 0.085000 41.649648 41.62752893 0 0 0 0 0 0 0 0 STD5.60
2026-03-25 18:43:44 15 17.70 0.075000 41.649648 41.62752893 0 0 0 0 0 0 0 0 STD5.60
2026-03-25 18:38:40 19 16.50 0.095000 41.649648 41.62752893 0 0 0 0 0 0 0 0 STD5.60
2026-03-25 18:33:38 19 17.60 0.095000 41.649648 41.62752893 0 0 0 0 0 0 0 0 STD5.60
2026-03-25 18:28:37 20 20.60 0.100000 41.649648 41.62752893 0 0 0 0 0 0 0 0 STD5.60
2026-03-25 18:23:34 26 19.00 0.130000 41.649648 41.62752893 0 0 0 0 0 0 0 0 STD5.60
2026-03-25 18:18:32 21 18.20 0.105000 41.649648 41.62752893 0 0 0 0 0 0 0 0 STD5.60
2026-03-25 18:13:33 22 19.00 0.110000 41.649648 41.62752893 0 0 0 0 0 0 0 0 STD5.60
2026-03-25 18:08:29 9 16.60 0.045000 41.649648 41.62752893 0 0 0 0 0 0 0 0 STD5.60
2026-03-25 18:03:24 15 15.70 0.075000 41.649648 41.62752893 0 0 0 0 0 0 0 0 STD5.60
2026-03-25 17:58:22 17 16.60 0.085000 41.649648 41.62752893 0 0 0 0 0 0 0 0 STD5.60
2026-03-25 17:53:20 28 18.70 0.140000 41.649648 41.62752893 0 0 0 0 0 0 0 0 STD5.60
2026-03-25 17:48:18 19 16.70 0.095000 41.649648 41.62752893 0 0 0 0 0 0 0 0 STD5.60
2026-03-25 17:43:16 15 17.00 0.075000 41.649648 41.62752893 0 0 0 0 0 0 0 0 STD5.60
2026-03-25 17:38:15 17 17.40 0.085000 41.649648 41.62752893 0 0 0 0 0 0 0 0 STD5.60
2026-03-25 17:33:13 10 17.20 0.050000 41.649648 41.62752893 0 0 0 0 0 0 0 0 STD5.60
2026-03-25 17:28:11 16 18.00 0.080000 41.649648 41.62752893 0 0 0 0 0 0 0 0 STD5.60
2026-03-25 17:23:09 21 21.80 0.105000 41.649648 41.62752893 0 0 0 0 0 0 0 0 STD5.60
2026-03-25 17:18:07 29 21.10 0.145000 41.649648 41.62752893 0 0 0 0 0 0 0 0 STD5.60
2026-03-25 17:13:07 19 16.20 0.095000 41.649648 41.62752893 0 0 0 0 0 0 0 0 STD5.60
2026-03-25 17:08:02 12 18.00 0.060000 41.649648 41.62752893 0 0 0 0 0 0 0 0 STD5.60
2026-03-25 17:02:59 19 19.10 0.095000 41.649648 41.62752893 0 0 0 0 0 0 0 0 STD5.60
2026-03-25 16:57:57 18 17.40 0.090000 41.649648 41.62752893 0 0 0 0 0 0 0 0 STD5.60
2026-03-25 16:52:55 14 18.90 0.070000 41.649648 41.62752893 0 0 0 0 0 0 0 0 STD5.60
2026-03-25 16:47:53 19 18.10 0.095000 41.649648 41.62752893 0 0 0 0 0 0 0 0 STD5.60
2026-03-25 16:42:52 10 17.80 0.050000 41.649648 41.62752893 0 0 0 0 0 0 0 0 STD5.60
2026-03-25 16:37:51 23 17.60 0.115000 41.649648 41.62752893 0 0 0 0 0 0 0 0 STD5.60
2026-03-25 16:32:48 15 17.20 0.075000 41.649648 41.62752893 0 0 0 0 0 0 0 0 STD5.60
2026-03-25 16:27:46 25 19.10 0.125000 41.649648 41.62752893 0 0 0 0 0 0 0 0 STD5.60
2026-03-25 16:22:44 15 17.90 0.075000 41.649648 41.62752893 0 0 0 0 0 0 0 0 STD5.60
Geiger Counter World Map       A real time radiation map.     Copyright 2015 All rights reserved.